UAE569 VOBL-OMDB

Flight info

Callsign UAE569
Flight time N/A
Altitude 38000
Route OPAMO8A OPAMO P574 BOLIS/N0479F400 P574 PAROK Q899 ITURA M762 MIVEK P574 IMPED
Aircraft A388/J-SADE2E3FGHIJ3J4J5M1RWXY/LB1D1

Departure

Time N/A
Airport Kempegowda International Airport Bengaluru (VOBL)

Arrival

Time 2026-05-08 05:08
Airport Dubai International Airport (OMDB)
Time Latitude Longitude Altitude Speed Heading
2026-05-08 04:20 22.80311 59.99977 39793 ft 476 kts 292°
2026-05-08 04:20 22.81598 59.96719 39791 ft 476 kts 292°
2026-05-08 04:21 22.82907 59.93400 39790 ft 475 kts 292°
2026-05-08 04:21 22.85509 59.86794 39788 ft 475 kts 292°
2026-05-08 04:22 22.88102 59.80206 39788 ft 475 kts 292°
2026-05-08 04:22 22.90677 59.73652 39788 ft 475 kts 292°
2026-05-08 04:23 22.93285 59.67010 39793 ft 475 kts 292°
2026-05-08 04:23 22.95856 59.60446 39791 ft 475 kts 292°
2026-05-08 04:24 22.98457 59.53799 39791 ft 475 kts 292°
2026-05-08 04:24 23.01032 59.47208 39790 ft 475 kts 292°
2026-05-08 04:25 23.03599 59.40628 39790 ft 475 kts 292°
2026-05-08 04:25 23.06191 59.33968 39789 ft 475 kts 291°
2026-05-08 04:26 23.08728 59.27394 39791 ft 475 kts 291°
2026-05-08 04:26 23.11278 59.20773 39797 ft 475 kts 291°
2026-05-08 04:27 23.13826 59.14155 39798 ft 475 kts 291°
2026-05-08 04:27 23.16385 59.07499 39798 ft 476 kts 291°
2026-05-08 04:28 23.18462 59.00698 39799 ft 475 kts 283°
2026-05-08 04:28 23.19888 58.94746 39802 ft 475 kts 284°
2026-05-08 04:29 23.21534 58.88031 39802 ft 475 kts 284°
2026-05-08 04:29 23.23226 58.81079 39803 ft 476 kts 283°
2026-05-08 04:30 23.24918 58.74103 39808 ft 476 kts 283°
2026-05-08 04:30 23.26585 58.67195 39808 ft 476 kts 283°
2026-05-08 04:31 23.28273 58.60197 39807 ft 476 kts 283°
2026-05-08 04:31 23.29940 58.53272 39807 ft 476 kts 283°
2026-05-08 04:32 23.31614 58.46314 39808 ft 476 kts 283°
2026-05-08 04:32 23.33294 58.39306 39806 ft 475 kts 283°
2026-05-08 04:33 23.34948 58.32393 39806 ft 475 kts 283°
2026-05-08 04:33 23.36618 58.25411 39807 ft 476 kts 283°
2026-05-08 04:34 23.38303 58.18466 39806 ft 476 kts 285°
2026-05-08 04:34 23.40752 58.11737 39804 ft 478 kts 295°
2026-05-08 04:35 23.44155 58.05502 39808 ft 480 kts 303°
2026-05-08 04:35 23.48045 57.99597 39803 ft 480 kts 303°
2026-05-08 04:36 23.51914 57.93657 39801 ft 480 kts 303°
2026-05-08 04:36 23.55784 57.87721 39797 ft 480 kts 303°
2026-05-08 04:37 23.59660 57.81781 39798 ft 480 kts 304°
2026-05-08 04:37 23.63755 57.76025 39798 ft 481 kts 306°
2026-05-08 04:38 23.67918 57.70305 39800 ft 481 kts 306°
2026-05-08 04:38 23.72028 57.64580 39800 ft 481 kts 306°
2026-05-08 04:39 23.76140 57.58820 39798 ft 482 kts 306°
2026-05-08 04:39 23.80264 57.53037 39795 ft 482 kts 306°
2026-05-08 04:40 23.84383 57.47250 39796 ft 482 kts 306°
2026-05-08 04:40 23.88504 57.41462 39793 ft 482 kts 306°
2026-05-08 04:41 23.92542 57.35773 39695 ft 480 kts 306°
2026-05-08 04:41 23.94550 57.32945 39474 ft 475 kts 306°
2026-05-08 04:41 23.96592 57.30067 39165 ft 472 kts 306°
2026-05-08 04:42 23.98589 57.27252 38531 ft 475 kts 306°
2026-05-08 04:42 24.00625 57.24377 37678 ft 479 kts 306°
2026-05-08 04:42 24.02674 57.21483 36790 ft 482 kts 306°
2026-05-08 04:42 24.04740 57.18563 35519 ft 487 kts 306°
2026-05-08 04:43 24.06801 57.15650 34687 ft 484 kts 306°
2026-05-08 04:43 24.08851 57.12754 34214 ft 477 kts 306°
2026-05-08 04:43 24.10882 57.09881 33580 ft 475 kts 306°
2026-05-08 04:43 24.12897 57.07034 32970 ft 471 kts 306°
2026-05-08 04:44 24.14897 57.04199 32388 ft 467 kts 306°
2026-05-08 04:44 24.16870 57.01398 31805 ft 463 kts 306°
2026-05-08 04:44 24.18830 56.98617 31224 ft 458 kts 306°
2026-05-08 04:44 24.20749 56.95894 30650 ft 454 kts 307°
2026-05-08 04:45 24.22665 56.93174 30078 ft 450 kts 307°
2026-05-08 04:45 24.24572 56.90461 29511 ft 445 kts 307°
2026-05-08 04:45 24.26454 56.87783 28943 ft 441 kts 307°
2026-05-08 04:45 24.28310 56.85145 28385 ft 436 kts 307°
2026-05-08 04:46 24.30155 56.82517 27824 ft 432 kts 307°
2026-05-08 04:46 24.31982 56.79914 27270 ft 428 kts 307°
2026-05-08 04:46 24.33788 56.77338 26717 ft 424 kts 307°
2026-05-08 04:46 24.35579 56.74784 26157 ft 421 kts 307°
2026-05-08 04:47 24.37355 56.72246 25599 ft 418 kts 307°
2026-05-08 04:47 24.39121 56.69723 25055 ft 414 kts 307°
2026-05-08 04:47 24.40870 56.67225 24510 ft 411 kts 307°
2026-05-08 04:47 24.42590 56.64767 23969 ft 408 kts 307°
2026-05-08 04:48 24.44406 56.62361 23419 ft 405 kts 313°
2026-05-08 04:48 24.46278 56.60209 22884 ft 402 kts 313°
2026-05-08 04:48 24.48186 56.57993 22355 ft 399 kts 313°
2026-05-08 04:48 24.50085 56.55773 21812 ft 397 kts 313°
2026-05-08 04:49 24.51963 56.53574 21271 ft 394 kts 313°
2026-05-08 04:49 24.53835 56.51382 20733 ft 392 kts 313°
2026-05-08 04:49 24.55692 56.49206 20194 ft 390 kts 313°
2026-05-08 04:49 24.57539 56.47041 19652 ft 387 kts 313°
2026-05-08 04:50 24.59376 56.44887 19126 ft 385 kts 313°
2026-05-08 04:50 24.60588 56.43469 18772 ft 384 kts 313°
2026-05-08 04:50 24.62379 56.41369 18239 ft 382 kts 314°
2026-05-08 04:50 24.64186 56.39245 17714 ft 380 kts 314°
2026-05-08 04:51 24.65988 56.37131 17177 ft 378 kts 314°
2026-05-08 04:51 24.67785 56.35021 16649 ft 376 kts 314°
2026-05-08 04:51 24.70160 56.32264 15943 ft 373 kts 317°
2026-05-08 04:51 24.72208 56.30546 15422 ft 369 kts 331°
2026-05-08 04:52 24.73758 56.29704 15076 ft 366 kts 340°
2026-05-08 04:52 24.76186 56.28907 14565 ft 362 kts 347°
2026-05-08 04:52 24.78610 56.28207 14125 ft 361 kts 346°
2026-05-08 04:52 24.81050 56.27480 13725 ft 365 kts 346°
2026-05-08 04:53 24.83472 56.26750 13201 ft 367 kts 346°
2026-05-08 04:53 24.85907 56.25925 12670 ft 363 kts 338°
2026-05-08 04:53 24.87951 56.24467 12201 ft 362 kts 318°
2026-05-08 04:53 24.89471 56.22275 11688 ft 360 kts 300°
2026-05-08 04:54 24.90668 56.19856 11177 ft 356 kts 300°
2026-05-08 04:54 24.91867 56.17498 10663 ft 351 kts 301°
2026-05-08 04:54 24.93061 56.15182 10355 ft 341 kts 301°
2026-05-08 04:54 24.94206 56.12959 10238 ft 326 kts 300°
2026-05-08 04:55 24.94581 56.12228 10190 ft 321 kts 301°
2026-05-08 04:55 24.95269 56.10889 10064 ft 312 kts 300°
2026-05-08 04:55 24.96290 56.08899 9917 ft 296 kts 300°
2026-05-08 04:55 24.97099 56.06985 9701 ft 291 kts 289°
2026-05-08 04:56 24.97566 56.04832 9436 ft 288 kts 279°
2026-05-08 04:56 24.97751 56.02646 9118 ft 284 kts 277°
2026-05-08 04:56 24.97903 56.00961 8875 ft 281 kts 278°
2026-05-08 04:56 24.98119 55.98732 8567 ft 276 kts 279°
2026-05-08 04:57 24.98331 55.96641 8282 ft 272 kts 278°
2026-05-08 04:57 24.98537 55.94591 7994 ft 268 kts 278°
2026-05-08 04:57 24.98736 55.92557 7700 ft 264 kts 278°
2026-05-08 04:57 24.98930 55.90553 7408 ft 261 kts 278°
2026-05-08 04:58 24.99119 55.88573 7126 ft 258 kts 278°
2026-05-08 04:58 24.99305 55.86624 6848 ft 255 kts 278°
2026-05-08 04:58 24.99491 55.84685 6574 ft 252 kts 278°
2026-05-08 04:58 24.99788 55.82803 6300 ft 247 kts 288°
2026-05-08 04:59 25.00413 55.81077 6028 ft 244 kts 298°
2026-05-08 04:59 25.01304 55.79493 5744 ft 242 kts 303°
2026-05-08 04:59 25.02202 55.77924 5479 ft 245 kts 302°
2026-05-08 04:59 25.03125 55.76348 5209 ft 245 kts 303°
2026-05-08 05:00 25.03951 55.74945 4952 ft 244 kts 302°
2026-05-08 05:00 25.04858 55.73314 4655 ft 245 kts 301°
2026-05-08 05:00 25.05745 55.71716 4378 ft 244 kts 301°
2026-05-08 05:00 25.06638 55.70110 4092 ft 244 kts 301°
2026-05-08 05:01 25.07522 55.68510 3812 ft 245 kts 301°
2026-05-08 05:01 25.08408 55.66912 3525 ft 244 kts 301°
2026-05-08 05:01 25.09216 55.65456 3260 ft 246 kts 301°
2026-05-08 05:01 25.10134 55.63809 2951 ft 245 kts 301°
2026-05-08 05:02 25.11021 55.62198 2652 ft 245 kts 301°
2026-05-08 05:02 25.11912 55.60592 2350 ft 245 kts 301°
2026-05-08 05:02 25.12802 55.58984 2069 ft 245 kts 300°
2026-05-08 05:02 25.13686 55.57387 2002 ft 247 kts 300°
2026-05-08 05:03 25.14558 55.55810 1997 ft 231 kts 300°
2026-05-08 05:03 25.15362 55.54358 2003 ft 216 kts 300°
2026-05-08 05:03 25.16112 55.53007 2010 ft 203 kts 300°
2026-05-08 05:03 25.16784 55.51786 2004 ft 171 kts 300°
2026-05-08 05:04 25.17299 55.50864 2003 ft 150 kts 300°
2026-05-08 05:04 25.17832 55.49896 2003 ft 147 kts 300°
2026-05-08 05:04 25.18369 55.48925 1995 ft 147 kts 300°
2026-05-08 05:04 25.18905 55.47954 1842 ft 148 kts 299°
2026-05-08 05:05 25.19441 55.46991 1642 ft 147 kts 300°
2026-05-08 05:05 25.19973 55.46024 1443 ft 148 kts 299°
2026-05-08 05:05 25.20520 55.45053 1276 ft 149 kts 301°
2026-05-08 05:05 25.21062 55.44103 1017 ft 147 kts 299°
2026-05-08 05:06 25.21487 55.43360 839 ft 148 kts 299°
2026-05-08 05:06 25.21985 55.42438 684 ft 147 kts 298°
2026-05-08 05:06 25.22498 55.41474 465 ft 147 kts 300°
2026-05-08 05:06 25.23039 55.40499 268 ft 148 kts 300°
2026-05-08 05:07 25.23571 55.39534 61 ft 143 kts 300°
2026-05-08 05:07 25.23962 55.38820 35 ft 116 kts 302°
2026-05-08 05:07 25.24305 55.38183 37 ft 81 kts 305°
2026-05-08 05:07 25.24560 55.37740 33 ft 53 kts 300°
2026-05-08 05:08 25.24726 55.37440 33 ft 42 kts 296°
2026-05-08 05:08 25.24784 55.37198 34 ft 24 kts 272°
2026-05-08 05:08 25.24789 55.37056 30 ft 16 kts 272°
2026-05-08 05:08 25.24786 55.36990 28 ft 0 kts 249°
2026-05-08 05:09 25.24761 55.36946 28 ft 10 kts 224°
2026-05-08 05:09 25.24693 55.36904 27 ft 15 kts 207°
2026-05-08 05:09 25.24601 55.36844 26 ft 17 kts 212°
2026-05-08 05:09 25.24497 55.36773 31 ft 18 kts 212°
2026-05-08 05:10 25.24431 55.36732 26 ft 2 kts 190°
2026-05-08 05:10 25.24364 55.36756 26 ft 0 kts 132°
2026-05-08 05:11 25.24361 55.36759 30 ft 5 kts 132°
2026-05-08 05:12 25.24318 55.36833 26 ft 13 kts 121°
2026-05-08 05:12 25.24262 55.36932 31 ft 17 kts 122°
2026-05-08 05:12 25.24222 55.37002 26 ft 5 kts 122°
2026-05-08 05:12 25.24212 55.37021 26 ft 0 kts 114°
2026-05-08 05:13 25.24211 55.37043 26 ft 3 kts 65°
2026-05-08 05:13 25.24226 55.37059 32 ft 2 kts 32°
2026-05-08 05:13 25.24256 55.37080 30 ft 0 kts 32°
2026-05-08 05:13 25.24261 55.37084 26 ft 0 kts 32°
2026-05-08 05:14 25.24269 55.37089 26 ft 0 kts 32°
2026-05-08 05:14 25.24278 55.37095 26 ft 1 kts 31°
2026-05-08 05:14 25.24280 55.37097 26 ft 0 kts 31°
2026-05-08 05:14 25.24281 55.37097 26 ft 0 kts 31°
2026-05-08 05:15 25.24282 55.37098 26 ft 0 kts 31°